Location: Olsztyn
(53.7767°N, 20.4765°E)
Time: 13:43:14
(UTC+02:00)

Vanguard 1 - All Passes

Search period start: 19 July 2024 00:00
Search period end: 29 July 2024 00:00
Orbit: 650 x 3826 km, 34.3° (Epoch: 15 July)

Date Brightness Start Highest point End Pass type
(mag) Time Alt. Az. Time Alt. Az. Time Alt. Az.
19 Jul - 02:31:12 10° S 02:45:06 21° SE 02:58:56 10° E visible
19 Jul - 04:47:34 10° SW 05:07:04 37° SSE 05:23:52 10° ESE daylight
19 Jul - 07:09:52 10° WSW 07:30:01 41° S 07:44:40 10° SE daylight
19 Jul - 09:35:36 10° W 09:51:24 29° SSW 10:02:21 10° SSE daylight
20 Jul - 02:48:35 10° S 03:04:20 25° SE 03:20:03 10° E visible
20 Jul - 05:06:41 10° SW 05:26:45 40° SSE 05:43:50 10° ESE daylight
20 Jul - 07:29:44 10° WSW 07:49:41 40° SSW 08:04:08 10° SE daylight
20 Jul - 09:56:10 10° W 10:10:37 25° SW 10:20:59 10° S daylight
21 Jul - 00:59:01 10° SE 01:03:16 11° ESE 01:07:35 10° ESE visible
21 Jul - 03:06:37 10° SSW 03:23:41 30° SSE 03:40:42 10° E visible
21 Jul - 05:26:02 10° SW 05:46:27 42° S 06:03:41 10° ESE daylight
21 Jul - 07:49:44 10° WSW 08:09:17 38° SSW 08:23:28 10° SE daylight
21 Jul - 10:17:02 10° W 10:29:42 21° SW 10:39:12 10° S daylight
22 Jul - 01:12:08 10° SSE 01:22:07 15° SE 01:32:47 10° E visible
22 Jul - 03:25:07 10° SSW 03:43:07 34° SSE 04:01:03 10° E visible
22 Jul - 05:45:33 10° WSW 06:06:11 43° S 06:23:26 10° ESE daylight
22 Jul - 08:09:51 10° W 08:28:47 35° SSW 08:42:38 10° SE daylight
22 Jul - 10:38:29 10° W 10:48:39 17° SW 10:56:46 10° SSW daylight
23 Jul - 01:28:26 10° S 01:41:06 20° SE 01:54:57 10° E visible
23 Jul - 03:43:57 10° SW 04:02:39 37° SSE 04:21:13 10° ESE visible
23 Jul - 06:05:14 10° WSW 06:25:55 43° S 06:43:04 10° ESE daylight
23 Jul - 08:30:06 10° W 08:48:10 32° SSW 09:01:35 10° SSE daylight
23 Jul - 11:01:14 10° WSW 11:07:29 12° SW 11:12:55 10° SW daylight
24 Jul - 01:45:51 10° S 02:00:12 25° SE 02:16:10 10° E visible
24 Jul - 04:03:03 10° SW 04:22:14 40° SSE 04:41:14 10° ESE daylight
24 Jul - 06:25:02 10° WSW 06:45:36 42° S 07:02:34 10° SE daylight
24 Jul - 08:50:34 10° W 09:07:26 28° SW 09:20:15 10° SSE daylight
25 Jul - 02:03:55 10° SSW 02:19:24 29° SE 02:36:54 10° E visible
25 Jul - 04:22:21 10° SW 04:41:54 42° S 05:01:08 10° ESE daylight
25 Jul - 06:44:58 10° WSW 07:05:14 40° SSW 07:21:55 10° SE daylight
25 Jul - 09:11:16 10° W 09:26:33 24° SW 09:38:32 10° S daylight
26 Jul - 00:10:38 10° SSE 00:18:30 14° SE 00:27:15 10° ESE visible
26 Jul - 02:22:24 10° SSW 02:38:43 33° SSE 02:57:20 10° E visible
26 Jul - 04:41:50 10° WSW 05:01:37 43° S 05:20:55 10° ESE daylight
26 Jul - 07:05:00 10° WSW 07:24:47 38° SSW 07:41:05 10° SE daylight
26 Jul - 09:32:26 10° W 09:45:34 20° SW 09:56:15 10° S daylight
27 Jul - 00:26:41 10° SSE 00:37:21 18° SE 00:49:51 10° E visible
27 Jul - 02:41:14 10° SSW 02:58:09 37° SSE 03:17:33 10° E visible
27 Jul - 05:01:27 10° WSW 05:21:19 44° S 05:40:34 10° ESE daylight
27 Jul - 07:25:11 10° W 07:44:14 34° SSW 08:00:02 10° SSE daylight
27 Jul - 09:54:26 10° W 10:04:26 15° SW 10:13:02 10° SSW daylight
28 Jul - 00:44:01 10° S 00:56:18 23° SE 01:11:16 10° E visible
28 Jul - 03:00:18 10° SW 03:17:40 40° SSE 03:37:38 10° ESE visible
28 Jul - 05:21:11 10° WSW 05:41:02 43° S 06:00:06 10° SE daylight
28 Jul - 07:45:31 10° W 08:03:34 31° SW 08:18:43 10° SSE daylight
28 Jul - 10:19:03 10° WSW 10:23:11 11° WSW 10:27:05 10° SW daylight
